W7TRD Weather Reports


time (UTC)temp
C
wind
direction
speed
KPH
gust
KPH
rain 1hr
cm
rain 24hr
cm
rain mn
cm
humidity
%
barometer
mb
20260503223907 33 354 6.4 9.7 0.00 0.00 0.00 31 1009.2
20260503223405 33 175 1.6 6.4 0.00 0.00 0.00 31 1009.2
20260503222859 34 124 0.0 4.8 0.00 0.00 0.00 31 1009.2
20260503222358 33 178 0.0 3.2 0.00 0.00 0.00 29 1009.2
20260503221856 33 184 0.0 4.8 0.00 0.00 0.00 30 1009.5
20260503221354 33 179 0.0 1.6 0.00 0.00 0.00 30 1009.3
20260503220850 33 235 1.6 9.7 0.00 0.00 0.00 30 1009.4
20260503220347 33 180 0.0 1.6 0.00 0.00 0.00 30 1009.6
20260503215844 33 160 0.0 1.6 0.00 0.00 0.00 31 1009.7
20260503215341 33 137 3.2 4.8 0.00 0.00 0.00 31 1009.7
20260503214838 33 103 4.8 6.4 0.00 0.00 0.00 31 1009.8
20260503214336 33 162 3.2 4.8 0.00 0.00 0.00 29 1009.9
20260503213833 33 182 0.0 3.2 0.00 0.00 0.00 33 1009.9
20260503213331 33 116 0.0 9.7 0.00 0.00 0.00 30 1009.9
20260503212827 33 188 1.6 3.2 0.00 0.00 0.00 31 1010.0
20260503212326 32 311 3.2 4.8 0.00 0.00 0.00 32 1010.1
20260503211823 33 178 1.6 4.8 0.00 0.00 0.00 33 1010.1
20260503211319 32 119 1.6 4.8 0.00 0.00 0.00 33 1010.0
20260503210819 32 185 1.6 3.2 0.00 0.00 0.00 35 1010.3
20260503210317 32 194 1.6 4.8 0.00 0.00 0.00 34 1010.4
20260503205812 32 170 1.6 1.6 0.00 0.00 0.00 34 1010.3
20260503205309 32 222 3.2 4.8 0.00 0.00 0.00 35 1010.3
20260503204805 31 201 3.2 4.8 0.00 0.00 0.00 35 1010.4
20260503204303 31 175 3.2 4.8 0.00 0.00 0.00 36 1010.6
20260503203800 32 197 4.8 4.8 0.00 0.00 0.00 35 1010.7
20260503203257 32 172 1.6 3.2 0.00 0.00 0.00 40 1010.6
20260503202754 31 193 1.6 4.8 0.00 0.00 0.00 38 1010.8
20260503202252 30 193 3.2 4.8 0.00 0.00 0.00 38 1010.8
20260503201750 30 197 3.2 4.8 0.00 0.00 0.00 39 1011.0
20260503201247 30 195 4.8 9.7 0.00 0.00 0.00 40 1010.8
20260503200744 30 182 1.6 4.8 0.00 0.00 0.00 42 1011.0
20260503200240 30 189 4.8 6.4 0.00 0.00 0.00 42 1011.0
20260503195737 30 186 3.2 4.8 0.00 0.00 0.00 42 1011.1
20260503195233 30 183 1.6 3.2 0.00 0.00 0.00 43 1011.2
20260503194732 30 182 3.2 3.2 0.00 0.00 0.00 44 1011.4
20260503194227 29 173 1.6 3.2 0.00 0.00 0.00 45 1011.3
20260503193723 29 178 1.6 4.8 0.00 0.00 0.00 43 1011.3
20260503193219 28 174 1.6 3.2 0.00 0.00 0.00 45 1011.3
20260503192715 28 167 1.6 4.8 0.00 0.00 0.00 46 1011.4
20260503192210 28 172 4.8 9.7 0.00 0.00 0.00 43 1011.4
20260503191707 28 158 3.2 6.4 0.00 0.00 0.00 45 1011.6
20260503191205 28 177 1.6 3.2 0.00 0.00 0.00 45 1011.7
20260503190701 28 174 1.6 3.2 0.00 0.00 0.00 46 1011.8
20260503190158 27 167 1.6 3.2 0.00 0.00 0.00 46 1011.8
20260503185655 27 174 1.6 3.2 0.00 0.00 0.00 48 1011.8
20260503185150 27 175 0.0 4.8 0.00 0.00 0.00 49 1011.7
20260503184645 27 172 0.0 3.2 0.00 0.00 0.00 48 1011.8
20260503184142 27 164 1.6 4.8 0.00 0.00 0.00 48 1011.9
20260503183638 26 174 1.6 9.7 0.00 0.00 0.00 51 1011.9
20260503183136 27 173 1.6 1.6 0.00 0.00 0.00 47 1012.2
20260503182634 26 172 3.2 4.8 0.00 0.00 0.00 48 1012.2
20260503182132 26 171 0.0 3.2 0.00 0.00 0.00 48 1012.2
20260503181629 26 164 3.2 4.8 0.00 0.00 0.00 48 1012.4
20260503181126 25 170 0.0 1.6 0.00 0.00 0.00 53 1012.4
20260503180622 25 172 1.6 3.2 0.00 0.00 0.00 51 1012.5
20260503180120 25 167 0.0 3.2 0.00 0.00 0.00 52 1012.4
20260503175617 26 171 1.6 3.2 0.00 0.00 0.00 52 1012.5
20260503175114 25 164 1.6 4.8 0.00 0.00 0.00 54 1012.4
20260503174611 25 172 3.2 4.8 0.00 0.00 0.00 54 1012.5
20260503174108 24 169 0.0 4.8 0.00 0.00 0.00 53 1012.7
20260503173603 23 172 1.6 3.2 0.00 0.00 0.00 57 1012.7
20260503173059 23 171 1.6 3.2 0.00 0.00 0.00 55 1012.5
20260503172557 23 168 0.0 3.2 0.00 0.00 0.00 56 1012.7
20260503172054 23 171 3.2 4.8 0.00 0.00 0.00 56 1012.8
20260503171550 22 168 0.0 1.6 0.00 0.00 0.00 59 1012.9
20260503171048 22 170 3.2 4.8 0.00 0.00 0.00 60 1012.7
20260503170544 22 170 3.2 4.8 0.00 0.00 0.00 59 1012.9
20260503150937 18 169 0.0 1.6 0.00 0.00 0.00 75 1013.5
20260503150433 17 169 1.6 1.6 0.00 0.00 0.00 77 1013.3
20260503131326 10 171 0.0 0.0 0.00 0.00 0.00 99 1012.9
20260503130824 10 171 0.0 0.0 0.00 0.00 0.00 99 1012.9
20260503130321 10 170 0.0 0.0 0.00 0.00 0.00 99 1013.0
20260503110714 11 183 0.0 0.0 0.00 0.00 0.00 97 1013.3
20260503110212 11 183 0.0 0.0 0.00 0.00 0.00 97 1013.2
20260503100138 12 176 0.0 0.0 0.00 0.00 0.00 94 1013.3
20260503081533 13 167 0.0 0.0 0.00 0.00 0.00 89 1013.3
20260503081030 13 167 0.0 0.0 0.00 0.00 0.00 89 1013.3
20260503080526 14 167 0.0 0.0 0.00 0.00 0.00 89 1013.3
20260503072500 15 167 0.0 0.0 0.00 0.00 0.00 87 1013.7
20260503071957 15 167 0.0 0.0 0.00 0.00 0.00 85 1013.5
20260503071454 15 167 0.0 0.0 0.00 0.00 0.00 86 1013.4
20260503070950 15 171 0.0 0.0 0.00 0.00 0.00 85 1013.5
20260503070447 15 180 0.0 0.0 0.00 0.00 0.00 85 1013.4
20260503054906 16 175 0.0 1.6 0.00 0.00 0.00 79 1013.3
20260503054402 16 170 0.0 0.0 0.00 0.00 0.00 79 1013.4
20260503053900 16 177 0.0 0.0 0.00 0.00 0.00 79 1013.4
20260503053358 16 177 0.0 0.0 0.00 0.00 0.00 79 1013.7
20260503052854 16 174 0.0 0.0 0.00 0.00 0.00 79 1013.4
20260503052351 17 176 0.0 0.0 0.00 0.00 0.00 78 1013.7
20260503051847 17 176 0.0 0.0 0.00 0.00 0.00 78 1013.9
20260503051344 17 173 0.0 0.0 0.00 0.00 0.00 77 1014.0
20260503050841 17 175 0.0 0.0 0.00 0.00 0.00 77 1013.7
20260503050337 17 176 0.0 0.0 0.00 0.00 0.00 77 1013.6
20260503045835 17 177 0.0 0.0 0.00 0.00 0.00 76 1013.8
20260503045332 17 174 0.0 0.0 0.00 0.00 0.00 75 1013.7
20260503044828 17 164 0.0 0.0 0.00 0.00 0.00 75 1013.8
20260503044325 17 165 0.0 0.0 0.00 0.00 0.00 75 1013.6
20260503043822 17 172 0.0 3.2 0.00 0.00 0.00 75 1013.6
20260503043319 17 161 0.0 1.6 0.00 0.00 0.00 75 1013.6
20260503042815 17 167 0.0 1.6 0.00 0.00 0.00 74 1013.7
20260503042313 17 163 0.0 0.0 0.00 0.00 0.00 75 1013.6
20260503041808 17 164 0.0 0.0 0.00 0.00 0.00 74 1013.8
20260503041306 18 166 0.0 1.6 0.00 0.00 0.00 73 1013.6
20260503040804 18 148 0.0 3.2 0.00 0.00 0.00 73 1013.7
20260503040301 18 147 1.6 1.6 0.00 0.00 0.00 72 1013.8
20260503035757 18 157 1.6 3.2 0.00 0.00 0.00 73 1013.7
20260503035255 18 134 1.6 4.8 0.00 0.00 0.00 72 1013.5
20260503034752 18 136 3.2 3.2 0.00 0.00 0.00 72 1013.5
20260503034249 18 123 1.6 4.8 0.00 0.00 0.00 72 1013.6
20260503033747 18 153 1.6 1.6 0.00 0.00 0.00 72 1013.5
20260503033244 18 98 1.6 3.2 0.00 0.00 0.00 72 1013.5
20260503032742 18 162 3.2 4.8 0.00 0.00 0.00 71 1013.2
20260503032241 18 174 0.0 1.6 0.00 0.00 0.00 71 1013.3
20260503031737 19 172 1.6 4.8 0.00 0.00 0.00 70 1013.1
20260503031235 19 165 3.2 11.3 0.00 0.00 0.00 70 1013.1
20260503030731 19 160 3.2 3.2 0.00 0.00 0.00 69 1013.0
20260503030228 20 163 3.2 6.4 0.00 0.00 0.00 68 1012.9
20260503025725 20 146 0.0 6.4 0.00 0.00 0.00 68 1012.9
20260503025222 20 142 1.6 9.7 0.00 0.00 0.00 66 1013.0
20260503024719 21 244 4.8 9.7 0.00 0.00 0.00 64 1012.7
20260503024216 21 138 3.2 6.4 0.00 0.00 0.00 63 1012.7
20260503023713 21 174 1.6 6.4 0.00 0.00 0.00 63 1012.8
20260503023210 22 173 3.2 6.4 0.00 0.00 0.00 61 1012.5
20260503022706 22 183 3.2 6.4 0.00 0.00 0.00 60 1012.8
20260503022205 23 187 3.2 3.2 0.00 0.00 0.00 59 1012.5
20260503021703 24 155 1.6 1.6 0.00 0.00 0.00 57 1012.2
20260503021159 25 191 3.2 4.8 0.00 0.00 0.00 55 1012.1
20260503020656 25 186 0.0 1.6 0.00 0.00 0.00 52 1012.0
20260503020154 25 180 0.0 1.6 0.00 0.00 0.00 53 1011.9
20260503015650 25 273 1.6 3.2 0.00 0.00 0.00 53 1012.0
20260503015147 25 189 0.0 1.6 0.00 0.00 0.00 52 1012.1
20260503014643 25 169 0.0 1.6 0.00 0.00 0.00 53 1011.9
20260503014141 25 224 4.8 6.4 0.00 0.00 0.00 54 1011.9
20260503013638 25 179 0.0 1.6 0.00 0.00 0.00 55 1011.9
20260503013136 25 176 0.0 1.6 0.00 0.00 0.00 54 1012.0
20260503012633 25 180 0.0 1.6 0.00 0.00 0.00 53 1011.8
20260503012130 25 276 3.2 4.8 0.00 0.00 0.00 54 1011.8
20260503011626 25 269 1.6 3.2 0.00 0.00 0.00 54 1011.8
20260503011124 25 166 0.0 1.6 0.00 0.00 0.00 54 1011.9
20260503010620 25 193 1.6 3.2 0.00 0.00 0.00 54 1011.9
20260503010117 25 202 0.0 1.6 0.00 0.00 0.00 54 1011.8
20260503005614 25 187 3.2 4.8 0.00 0.00 0.00 54 1012.0
20260503005111 25 133 0.0 3.2 0.00 0.00 0.00 53 1011.9
20260503004607 25 182 1.6 3.2 0.00 0.00 0.00 52 1012.1
20260503004106 25 253 0.0 3.2 0.00 0.00 0.00 54 1011.9
20260503003602 25 153 1.6 1.6 0.00 0.00 0.00 53 1012.0
20260503003059 25 174 3.2 4.8 0.00 0.00 0.00 53 1011.9
20260503002556 25 193 1.6 3.2 0.00 0.00 0.00 53 1012.0
20260503002053 25 178 0.0 1.6 0.00 0.00 0.00 55 1011.9
20260503001549 25 236 3.2 3.2 0.00 0.00 0.00 53 1011.8
20260503001047 24 173 0.0 1.6 0.00 0.00 0.00 55 1012.0
20260503000544 24 213 1.6 4.8 0.00 0.00 0.00 56 1012.2
20260503000041 24 181 1.6 3.2 0.00 0.00 0.00 55 1012.0
20260502235537 25 176 0.0 1.6 0.00 0.00 0.00 54 1012.2
20260502235036 25 180 0.0 3.2 0.00 0.00 0.00 55 1012.2
20260502234531 25 111 3.2 3.2 0.00 0.00 0.00 54 1012.2
20260502234029 23 147 1.6 3.2 0.00 0.00 0.00 56 1012.3
20260502233529 23 187 3.2 3.2 0.00 0.00 0.00 57 1012.4
20260502233027 23 159 3.2 6.4 0.00 0.00 0.00 58 1012.3
20260502232523 24 151 1.6 3.2 0.00 0.00 0.00 55 1012.5
20260502232020 24 179 0.0 1.6 0.00 0.00 0.00 55 1012.7
20260502231517 23 188 1.6 3.2 0.00 0.00 0.00 55 1012.6
20260502231015 23 165 1.6 3.2 0.00 0.00 0.00 56 1012.8
20260502230513 23 199 0.0 3.2 0.00 0.00 0.00 57 1012.7
20260502230011 23 178 1.6 1.6 0.00 0.00 0.00 56 1013.1
20260502225511 23 170 0.0 3.2 0.00 0.00 0.00 58 1012.8
20260502225009 22 168 1.6 4.8 0.00 0.00 0.00 58 1013.1
20260502224505 22 166 1.6 3.2 0.00 0.00 0.00 59 1013.2
20260502224002 22 178 0.0 4.8 0.00 0.00 0.00 59 1013.3